Regional Weather Roundup
Issued by NWS

Home | Current Version | Previous Version | Text Only | Print | Product List | Glossary On
Versions: 1 2 3 4 5 6 7 8 9 10 11 12 13 14 15 16 17 18 19 20 21 22 23 24 25 26 27 28 29 30 31 32 33 34 35 36 37 38 39 40 41 42 43 44 45 46 47 48 49 50
000
ASCA42 TJSJ 290810
RWRPR
PUERTO RICO/U.S. VIRGIN ISLANDS HOURLY WEATHER ROUNDUP
NATIONAL WEATHER SERVICE SAN JUAN PR
400 AM AST FRI MAY 29 2015

PRZ001-004-290900-
PUERTO RICO

CITY           SKY/WX    TMP DP  RH WIND       PRES   REMARKS
SAN JUAN LMM   CLEAR     79  73  83 CALM      29.96S
PONCE          PTCLDY    77  70  78 NE6       29.92F
AGUADILLA      CLEAR     72  66  83 SE5       29.96F
CEIBA          PTCLDY    75  73  94 CALM      29.97S
$$

PRZ006-007-290900-
U.S. VIRGIN ISLANDS

CITY           SKY/WX    TMP DP  RH WIND       PRES   REMARKS
CHARLOTTE AMA  CLOUDY    79  73  83 E3        29.95S
CHRISTIANSTED  MOCLDY    77  73  88 CALM      29.95F
$$

HOURLY WEATHER ROUNDUP FOR THE NEWS MEDIA

CITY           SKY/WX    TMP DP  RH WIND       PRES   REMARKS
ORLANDO        CLEAR     70  63  78 E3        30.08F
NEW YORK       PTCLDY    65  53  65 N7        30.26R
NEWARK         PTCLDY    65  54  67 N8        30.26R
CHICAGO        MOCLDY    66  57  72 S8        30.05R
HARTFORD       CLEAR     56  54  93 CALM      30.22S FOG
BOSTON         PTCLDY    65  55  70 NW12      30.23R
PHILADELPHIA   PTCLDY    70  54  56 NE7       30.25S
LOS ANGELES    MOCLDY    59  56  89 W6        29.96S
WASHINGTON DC  CLEAR     71  66  84 N7        30.20R



USA.gov is the U.S. government's official web portal to all federal, state and local government web resources and services.